User: anonymous   Login
Location: Unspecified
(0.0000°N, 0.0000°E)
Time: 14:17:30
(UTC+00:00)
Language:

ATEX - Orbit

View from above orbital plane
View from above orbital plane
View from above satellite
View from above satellite

Ground track
Ground track

The orbit data is extracted from the following two-line orbital elements,

1 25489U 98055A   23267.94866450  .00001144  00000-0  29215-3 0  9999
2 25489  84.9870 210.2345 0011442  97.3289 262.9214 14.49638690319237
Epoch (UTC): 24 September 2023 22:46:04
Eccentricity: 0.0011442
inclination: 84.9870°
perigee height: 719 km
apogee height: 735 km
right ascension of ascending node: 210.2345°
argument of perigee: 97.3289°
revolutions per day: 14.49638690
mean anomaly at epoch: 262.9214°
orbit number at epoch: 31923

The dashed part of the orbit path shows where the satellite is in the earth's shadow,  

DLR